| time (UTC) | temp F | wind direction | speed MPH | gust MPH | rain 1hr in | rain 24hr in | rain mn in | humidity % | barometer mb |
| 20260506001037 | 33 | 85 | 0.0 | 1.0 | 0.00 | 0.49 | 0.30 | 94 | 1016.0 |
| 20260506000055 | 33 | 0.0 | 0.0 | 0.00 | 0.49 | 0.30 | 94 | 1015.8 | |
| 20260505235015 | 33 | 0.0 | 0.0 | 0.00 | 0.49 | 0.30 | 94 | 1015.9 | |
| 20260505234016 | 33 | 0.0 | 0.0 | 0.01 | 0.49 | 0.30 | 94 | 1015.9 | |
| 20260505233016 | 34 | 246 | 0.0 | 1.0 | 0.01 | 0.49 | 0.30 | 94 | 1015.8 |
| 20260505232017 | 34 | 20 | 0.0 | 1.0 | 0.02 | 0.49 | 0.30 | 94 | 1015.9 |
| 20260505231017 | 34 | 297 | 0.0 | 1.0 | 0.02 | 0.49 | 0.30 | 94 | 1015.8 |
| 20260505230017 | 34 | 231 | 0.0 | 1.0 | 0.03 | 0.49 | 0.30 | 94 | 1015.4 |
| 20260505225115 | 34 | 206 | 0.0 | 1.0 | 0.04 | 0.49 | 0.30 | 94 | 1015.2 |
| 20260505224035 | 34 | 231 | 0.0 | 1.0 | 0.04 | 0.48 | 0.29 | 93 | 1015.1 |
| 20260505223016 | 35 | 351 | 0.0 | 1.0 | 0.05 | 0.48 | 0.29 | 93 | 1015.1 |
| 20260505222036 | 35 | 0.0 | 0.0 | 0.05 | 0.47 | 0.28 | 93 | 1014.9 | |
| 20260505221016 | 35 | 0.0 | 0.0 | 0.06 | 0.46 | 0.28 | 93 | 1014.9 | |
| 20260505220016 | 35 | 110 | 0.0 | 1.0 | 0.06 | 0.46 | 0.27 | 93 | 1015.0 |
| 20260505215037 | 36 | 236 | 0.0 | 1.0 | 0.06 | 0.45 | 0.26 | 93 | 1015.3 |
| 20260505214035 | 35 | 247 | 0.0 | 1.0 | 0.06 | 0.44 | 0.25 | 93 | 1015.2 |
| 20260505213035 | 35 | 102 | 0.0 | 1.0 | 0.06 | 0.43 | 0.24 | 92 | 1015.2 |
| 20260505212016 | 36 | 102 | 0.0 | 1.0 | 0.07 | 0.43 | 0.24 | 92 | 1015.4 |
| 20260505211016 | 36 | 123 | 0.0 | 1.0 | 0.06 | 0.41 | 0.22 | 92 | 1015.5 |
| 20260505210016 | 37 | 266 | 0.0 | 1.0 | 0.06 | 0.40 | 0.21 | 92 | 1015.7 |
| 20260505205017 | 37 | 0.0 | 0.0 | 0.06 | 0.39 | 0.20 | 92 | 1016.0 | |
| 20260505204017 | 37 | 91 | 0.0 | 1.0 | 0.06 | 0.38 | 0.19 | 92 | 1015.9 |
| 20260505203015 | 37 | 270 | 0.0 | 2.0 | 0.06 | 0.37 | 0.18 | 92 | 1016.2 |
| 20260505202015 | 37 | 116 | 0.0 | 1.0 | 0.05 | 0.35 | 0.17 | 92 | 1016.3 |
| 20260505201015 | 38 | 107 | 0.0 | 1.0 | 0.05 | 0.35 | 0.16 | 92 | 1016.3 |
| 20260505200016 | 38 | 0.0 | 0.0 | 0.05 | 0.34 | 0.15 | 91 | 1016.3 | |
| 20260505195016 | 38 | 106 | 0.0 | 2.0 | 0.05 | 0.33 | 0.14 | 92 | 1016.3 |
| 20260505194017 | 38 | 259 | 0.0 | 1.0 | 0.04 | 0.32 | 0.13 | 92 | 1016.3 |
| 20260505193017 | 38 | 275 | 0.0 | 1.0 | 0.04 | 0.31 | 0.13 | 92 | 1016.3 |
| 20260505192015 | 38 | 133 | 0.0 | 1.0 | 0.03 | 0.31 | 0.12 | 93 | 1016.5 |
| 20260505191015 | 38 | 187 | 0.0 | 1.0 | 0.02 | 0.30 | 0.11 | 92 | 1016.6 |
| 20260505190016 | 37 | 118 | 0.0 | 1.0 | 0.02 | 0.29 | 0.10 | 92 | 1016.8 |
| 20260505185016 | 37 | 118 | 0.0 | 1.0 | 0.01 | 0.28 | 0.09 | 92 | 1016.8 |
| 20260505184017 | 37 | 102 | 0.0 | 1.0 | 0.01 | 0.28 | 0.09 | 93 | 1016.8 |
| 20260505183017 | 37 | 96 | 0.0 | 2.0 | 0.01 | 0.28 | 0.09 | 92 | 1016.9 |
| 20260505182017 | 37 | 103 | 0.0 | 2.0 | 0.01 | 0.28 | 0.09 | 92 | 1017.0 |
| 20260505181015 | 37 | 111 | 0.0 | 1.0 | 0.01 | 0.28 | 0.09 | 92 | 1017.2 |
| 20260505180015 | 37 | 101 | 0.0 | 1.0 | 0.01 | 0.28 | 0.09 | 93 | 1017.3 |
| 20260505175015 | 37 | 97 | 0.0 | 1.0 | 0.01 | 0.28 | 0.09 | 93 | 1017.3 |
| 20260505174016 | 37 | 113 | 0.0 | 2.0 | 0.01 | 0.28 | 0.09 | 93 | 1017.3 |
| 20260505173036 | 37 | 79 | 0.0 | 2.0 | 0.00 | 0.27 | 0.08 | 93 | 1017.5 |
| 20260505172017 | 37 | 67 | 0.0 | 3.0 | 0.00 | 0.27 | 0.08 | 93 | 1017.4 |
| 20260505171014 | 37 | 100 | 0.0 | 1.0 | 0.00 | 0.27 | 0.08 | 93 | 1017.6 |
| 20260505170035 | 36 | 98 | 1.0 | 3.0 | 0.00 | 0.27 | 0.08 | 93 | 1017.7 |
| 20260505165016 | 37 | 105 | 0.0 | 3.0 | 0.00 | 0.27 | 0.08 | 93 | 1017.8 |
| 20260505164016 | 36 | 102 | 0.0 | 3.0 | 0.00 | 0.27 | 0.08 | 93 | 1017.8 |
| 20260505163016 | 36 | 109 | 1.0 | 3.0 | 0.00 | 0.27 | 0.08 | 93 | 1017.8 |
| 20260505162017 | 36 | 96 | 0.0 | 4.0 | 0.00 | 0.27 | 0.08 | 93 | 1017.8 |
| 20260505161017 | 36 | 91 | 0.0 | 2.0 | 0.00 | 0.27 | 0.08 | 93 | 1017.8 |
| 20260505153036 | 36 | 99 | 0.0 | 2.0 | 0.01 | 0.27 | 0.08 | 94 | 1017.9 |
| 20260505152016 | 36 | 100 | 0.0 | 1.0 | 0.01 | 0.27 | 0.08 | 94 | 1018.0 |
| 20260505151017 | 36 | 116 | 0.0 | 2.0 | 0.01 | 0.27 | 0.08 | 94 | 1017.9 |
| 20260505125017 | 38 | 194 | 1.0 | 3.0 | 0.02 | 0.24 | 0.05 | 92 | 1016.3 |
| 20260505124037 | 38 | 245 | 0.0 | 3.0 | 0.03 | 0.24 | 0.05 | 92 | 1016.0 |
| 20260505123015 | 40 | 82 | 0.0 | 3.0 | 0.02 | 0.23 | 0.04 | 92 | 1015.7 |
| 20260505122015 | 40 | 149 | 1.0 | 3.0 | 0.02 | 0.22 | 0.03 | 92 | 1015.8 |
| 20260505121015 | 41 | 22 | 0.0 | 2.0 | 0.03 | 0.22 | 0.03 | 93 | 1015.6 |
| 20260505120036 | 42 | 41 | 0.0 | 1.0 | 0.02 | 0.21 | 0.02 | 93 | 1015.6 |
| 20260505115016 | 42 | 264 | 0.0 | 1.0 | 0.02 | 0.21 | 0.02 | 93 | 1015.5 |
| 20260505114016 | 42 | 340 | 0.0 | 1.0 | 0.02 | 0.20 | 0.02 | 92 | 1015.5 |
| 20260505113017 | 42 | 75 | 0.0 | 1.0 | 0.02 | 0.20 | 0.02 | 92 | 1015.4 |
| 20260505112015 | 42 | 265 | 0.0 | 1.0 | 0.01 | 0.20 | 0.01 | 92 | 1015.5 |
| 20260505111015 | 42 | 258 | 0.0 | 1.0 | 0.00 | 0.19 | 0.00 | 91 | 1015.3 |
| 20260505102117 | 44 | 276 | 0.0 | 1.0 | 0.00 | 0.19 | 0.00 | 92 | 1014.7 |
| 20260505101015 | 44 | 260 | 0.0 | 1.0 | 0.00 | 0.19 | 0.00 | 92 | 1014.5 |
| 20260505100015 | 44 | 252 | 0.0 | 1.0 | 0.00 | 0.19 | 0.00 | 93 | 1014.4 |
| 20260505095016 | 44 | 125 | 0.0 | 1.0 | 0.00 | 0.19 | 0.00 | 93 | 1014.3 |
| 20260505094016 | 44 | 0.0 | 0.0 | 0.00 | 0.19 | 0.00 | 92 | 1014.5 | |
| 20260505093017 | 44 | 0.0 | 0.0 | 0.00 | 0.19 | 0.00 | 92 | 1014.6 | |
| 20260505092017 | 44 | 0.0 | 0.0 | 0.00 | 0.19 | 0.00 | 91 | 1014.7 | |
| 20260505091037 | 45 | 0.0 | 0.0 | 0.00 | 0.19 | 0.00 | 91 | 1014.6 | |
| 20260505090015 | 45 | 0.0 | 0.0 | 0.00 | 0.19 | 0.00 | 91 | 1014.4 | |
| 20260505085015 | 45 | 125 | 0.0 | 1.0 | 0.00 | 0.19 | 0.00 | 91 | 1014.5 |
| 20260505084016 | 45 | 0.0 | 0.0 | 0.00 | 0.19 | 0.00 | 90 | 1014.6 | |
| 20260505083016 | 45 | 125 | 0.0 | 1.0 | 0.00 | 0.19 | 0.00 | 90 | 1014.7 |
| 20260505082016 | 45 | 125 | 1.0 | 3.0 | 0.00 | 0.19 | 0.00 | 91 | 1014.9 |
| 20260505081017 | 45 | 136 | 0.0 | 1.0 | 0.00 | 0.19 | 0.00 | 92 | 1015.0 |
| 20260505080017 | 45 | 0.0 | 0.0 | 0.00 | 0.19 | 0.00 | 92 | 1015.1 | |
| 20260505075015 | 45 | 0.0 | 0.0 | 0.00 | 0.19 | 0.00 | 91 | 1015.3 | |
| 20260505074015 | 45 | 132 | 0.0 | 1.0 | 0.00 | 0.19 | 0.00 | 91 | 1015.4 |
| 20260505073016 | 46 | 132 | 0.0 | 1.0 | 0.00 | 0.19 | 0.00 | 92 | 1015.5 |
| 20260505072016 | 46 | 141 | 0.0 | 2.0 | 0.00 | 0.19 | 0.00 | 92 | 1015.4 |
| 20260505071016 | 46 | 140 | 0.0 | 2.0 | 0.00 | 0.19 | 0.00 | 93 | 1015.7 |
| 20260505070017 | 46 | 109 | 0.0 | 1.0 | 0.00 | 0.19 | 0.00 | 93 | 1015.8 |
| 20260505065034 | 46 | 109 | 0.0 | 1.0 | 0.00 | 0.19 | 0.00 | 93 | 1015.9 |
| 20260505064015 | 46 | 109 | 0.0 | 1.0 | 0.00 | 0.19 | 0.00 | 93 | 1015.9 |
| 20260505063016 | 46 | 79 | 0.0 | 1.0 | 0.01 | 0.19 | 0.00 | 93 | 1015.9 |
| 20260505062036 | 46 | 0.0 | 0.0 | 0.01 | 0.19 | 0.00 | 93 | 1015.9 | |
| 20260505061036 | 46 | 0.0 | 0.0 | 0.02 | 0.19 | 0.00 | 93 | 1016.0 | |
| 20260505060037 | 46 | 0.0 | 0.0 | 0.03 | 0.19 | 0.00 | 92 | 1016.0 | |
| 20260505055017 | 46 | 79 | 0.0 | 1.0 | 0.06 | 0.19 | 0.19 | 92 | 1015.9 |
| 20260505054015 | 46 | 0.0 | 0.0 | 0.13 | 0.19 | 0.19 | 92 | 1015.8 | |
| 20260505053055 | 46 | 0.0 | 0.0 | 0.13 | 0.18 | 0.18 | 92 | 1016.0 | |
| 20260505052015 | 46 | 0.0 | 0.0 | 0.14 | 0.18 | 0.18 | 91 | 1016.1 | |
| 20260505051016 | 46 | 78 | 0.0 | 1.0 | 0.14 | 0.17 | 0.17 | 91 | 1016.4 |
| 20260505041015 | 49 | 121 | 0.0 | 1.0 | 0.03 | 0.03 | 0.03 | 81 | 1016.2 |
| 20260505040016 | 50 | 78 | 0.0 | 1.0 | 0.02 | 0.02 | 0.02 | 77 | 1016.0 |
| 20260505035016 | 52 | 80 | 0.0 | 2.0 | 0.01 | 0.01 | 0.01 | 70 | 1016.0 |
| 20260505034016 | 53 | 0.0 | 0.0 | 0.00 | 0.00 | 0.00 | 62 | 1015.7 | |
| 20260505033017 | 53 | 0.0 | 0.0 | 0.00 | 0.00 | 0.00 | 60 | 1015.5 | |
| 20260505032035 | 53 | 0.0 | 0.0 | 0.00 | 0.00 | 0.00 | 60 | 1015.2 | |
| 20260505031015 | 53 | 0.0 | 0.0 | 0.00 | 0.00 | 0.00 | 60 | 1015.1 | |
| 20260505030016 | 53 | 0.0 | 0.0 | 0.00 | 0.00 | 0.00 | 60 | 1014.9 | |
| 20260505025016 | 53 | 0.0 | 0.0 | 0.00 | 0.00 | 0.00 | 60 | 1014.9 | |
| 20260505024016 | 53 | 0.0 | 0.0 | 0.00 | 0.00 | 0.00 | 60 | 1014.8 | |
| 20260505023037 | 53 | 0.0 | 0.0 | 0.00 | 0.00 | 0.00 | 60 | 1014.6 | |
| 20260505022017 | 53 | 277 | 0.0 | 1.0 | 0.00 | 0.00 | 0.00 | 60 | 1014.8 |
| 20260505021015 | 53 | 3 | 0.0 | 1.0 | 0.00 | 0.00 | 0.00 | 59 | 1014.7 |
| 20260505020015 | 54 | 65 | 0.0 | 3.0 | 0.00 | 0.00 | 0.00 | 55 | 1014.7 |
| 20260505015015 | 55 | 46 | 0.0 | 2.0 | 0.00 | 0.00 | 0.00 | 53 | 1014.3 |
| 20260505014036 | 55 | 82 | 0.0 | 1.0 | 0.00 | 0.00 | 0.00 | 53 | 1013.7 |
| 20260505013016 | 56 | 114 | 0.0 | 1.0 | 0.00 | 0.00 | 0.00 | 52 | 1014.1 |
| 20260505012017 | 57 | 53 | 0.0 | 2.0 | 0.00 | 0.00 | 0.00 | 50 | 1014.1 |
| 20260505011017 | 58 | 66 | 1.0 | 6.0 | 0.00 | 0.00 | 0.00 | 47 | 1013.8 |
| 20260505010015 | 58 | 326 | 0.0 | 2.0 | 0.00 | 0.00 | 0.00 | 45 | 1013.7 |
| 20260505005015 | 59 | 273 | 0.0 | 2.0 | 0.00 | 0.00 | 0.00 | 44 | 1013.5 |
| 20260505004016 | 59 | 46 | 1.0 | 3.0 | 0.00 | 0.00 | 0.00 | 42 | 1013.5 |
| 20260505003036 | 60 | 64 | 0.0 | 4.0 | 0.00 | 0.00 | 0.00 | 41 | 1013.4 |
| 20260505002017 | 61 | 331 | 1.0 | 3.0 | 0.00 | 0.00 | 0.00 | 39 | 1013.2 |